TimeMST,TemperatureF,Dew PointF,Humidity,Sea Level PressureIn,VisibilityMPH,Wind Direction,Wind SpeedMPH,Gust SpeedMPH,PrecipitationIn,Events,Conditions,WindDirDegrees,DateUTC
12:53 AM,3.2,-5.8,66,29.86,6.0,West,9.2,-,N/A,,Haze,260,2013-01-12 07:53:00
1:53 AM,1.9,-6.0,69,30.14,9.0,WSW,8.1,-,N/A,,Overcast,250,2013-01-12 08:53:00
2:53 AM,1.9,-7.1,66,30.15,10.0,WSW,5.8,-,N/A,,Overcast,240,2013-01-12 09:53:00
3:53 AM,1.0,-7.1,69,30.15,10.0,SW,8.1,-,N/A,,Overcast,230,2013-01-12 10:53:00
4:53 AM,1.9,-6.0,69,30.16,6.0,SW,9.2,-,0.00,Snow,Light Snow,230,2013-01-12 11:53:00
5:53 AM,1.9,-5.1,72,30.18,2.5,SW,5.8,-,0.01,Snow,Light Snow,230,2013-01-12 12:53:00
6:53 AM,1.0,-2.9,83,30.21,3.0,Calm,Calm,-,0.00,Snow,Light Snow,0,2013-01-12 13:53:00
7:46 AM,1.4,-4.0,78,29.94,2.0,NE,3.5,-,0.01,Snow,Light Snow,50,2013-01-12 14:46:00
7:53 AM,1.9,-2.9,80,30.23,1.8,Calm,Calm,-,0.01,Snow,Light Snow,0,2013-01-12 14:53:00
8:24 AM,1.4,-2.2,85,29.96,2.5,SSW,5.8,-,0.00,Snow,Light Snow,200,2013-01-12 15:24:00
8:34 AM,1.4,-2.2,85,29.96,3.0,SW,5.8,-,0.00,,Haze,220,2013-01-12 15:34:00
8:53 AM,3.0,-2.9,76,30.25,2.5,SW,8.1,-,0.00,Snow,Light Snow,220,2013-01-12 15:53:00
9:12 AM,3.2,-2.2,78,29.96,3.0,SSW,10.4,-,0.00,,Haze,210,2013-01-12 16:12:00
9:53 AM,3.9,-2.9,73,30.25,8.0,SW,11.5,-,0.00,,Overcast,220,2013-01-12 16:53:00
10:53 AM,5.0,-2.9,70,30.24,9.0,WSW,12.7,-,N/A,,Overcast,240,2013-01-12 17:53:00
11:53 AM,6.1,-2.0,69,30.22,3.0,WSW,13.8,-,0.00,Snow,Light Snow,240,2013-01-12 18:53:00
12:53 PM,7.0,-2.0,67,30.19,8.0,West,9.2,-,0.00,,Overcast,260,2013-01-12 19:53:00
1:37 PM,6.8,-2.2,67,29.93,3.0,West,9.2,-,N/A,,Haze,270,2013-01-12 20:37:00
1:44 PM,6.8,-0.4,72,29.93,3.0,West,9.2,-,N/A,,Haze,260,2013-01-12 20:44:00
1:53 PM,7.0,-0.9,70,30.20,3.0,West,8.1,-,N/A,,Haze,270,2013-01-12 20:53:00
2:53 PM,7.0,-0.9,70,30.21,8.0,WSW,4.6,-,N/A,,Overcast,250,2013-01-12 21:53:00
3:53 PM,6.1,-2.0,69,30.22,10.0,WNW,5.8,-,N/A,,Overcast,300,2013-01-12 22:53:00
4:53 PM,1.9,-4.0,76,30.24,10.0,NW,4.6,-,N/A,,Partly Cloudy,320,2013-01-12 23:53:00
5:53 PM,-4.0,-7.6,85,29.95,10.0,Calm,Calm,-,N/A,,Overcast,0,2013-01-13 00:53:00
6:53 PM,-2.0,-7.1,79,30.27,10.0,SW,3.5,-,N/A,,Overcast,230,2013-01-13 01:53:00
7:53 PM,-7.1,-11.0,83,30.29,10.0,West,3.5,-,N/A,,Partly Cloudy,270,2013-01-13 02:53:00
8:53 PM,-9.9,-14.1,82,30.30,10.0,Calm,Calm,-,N/A,,Mostly Cloudy,0,2013-01-13 03:53:00
9:53 PM,-7.6,-11.2,84,29.96,10.0,WSW,4.6,-,N/A,,Partly Cloudy,240,2013-01-13 04:53:00
10:53 PM,-5.1,-11.0,76,30.27,10.0,WSW,4.6,-,N/A,,Overcast,240,2013-01-13 05:53:00
11:53 PM,-2.9,-9.0,75,30.26,10.0,SW,8.1,-,N/A,,Overcast,230,2013-01-13 06:53:00